• In Uzbekistan
  • List of Countries
  • For 7 days
  • Water Temperature
  • Satellite Maps
  • Weather Map
  • Weather Widgets
  • user-avatar
    Login

    Hourly Weather Tirana

    Today, 19 January, Thursday

    Time Temperature Precipitation Wind Pressure Humidity
    00:00 +5°C° 0.4 mm 5 mps 754 mmHg 85%
    01:00 +3°C° 0 mm 6 mps 754 mmHg 85%
    02:00 +3°C° 0.2 mm 6 mps 755 mmHg 85%
    03:00 +3°C° 0.2 mm 6 mps 755 mmHg 85%
    04:00 +3°C° 0.2 mm 6 mps 755 mmHg 85%
    05:00 +2°C° 0.2 mm 6 mps 756 mmHg 85%
    06:00 +2°C° 0.2 mm 6 mps 756 mmHg 84%
    07:00 +1°C° 0 mm 5 mps 756 mmHg 85%
    08:00 +2°C° 0.1 mm 5 mps 757 mmHg 82%
    09:00 +5°C° 0.1 mm 5 mps 757 mmHg 79%
    10:00 +6°C° 0.1 mm 5 mps 758 mmHg 76%
    11:00 +7°C° 0 mm 5 mps 758 mmHg 75%
    12:00 +8°C° 0 mm 5 mps 758 mmHg 73%
    13:00 +8°C° 0 mm 5 mps 758 mmHg 72%
    14:00 +8°C° 0 mm 5 mps 758 mmHg 74%
    15:00 +7°C° 0 mm 5 mps 759 mmHg 76%
    16:00 +6°C° 0 mm 4 mps 759 mmHg 79%
    17:00 +5°C° 0 mm 5 mps 760 mmHg 80%
    18:00 +3°C° 0 mm 5 mps 760 mmHg 81%
    19:00 +2°C° 0 mm 5 mps 761 mmHg 83%
    20:00 +2°C° 0 mm 5 mps 761 mmHg 83%
    21:00 +1°C° 0 mm 5 mps 762 mmHg 82%
    22:00 +1°C° 0 mm 5 mps 762 mmHg 82%
    23:00 +1°C° 0 mm 5 mps 763 mmHg 82%

    Tomorrow, 20 January, Friday

    Time Temperature Precipitation Wind Pressure Humidity
    00:00 +1°C° 0 mm 5 mps 763 mmHg 82%
    01:00 0°C° 0 mm 5 mps 763 mmHg 82%
    02:00 0°C° 0 mm 5 mps 763 mmHg 81%
    03:00 0°C° 0 mm 5 mps 763 mmHg 81%
    04:00 0°C° 0 mm 4 mps 763 mmHg 81%
    05:00 0°C° 0 mm 4 mps 764 mmHg 81%
    06:00 0°C° 0 mm 4 mps 764 mmHg 80%
    07:00 0°C° 0 mm 4 mps 764 mmHg 80%
    08:00 +1°C° 0 mm 4 mps 764 mmHg 77%
    09:00 +4°C° 0 mm 4 mps 765 mmHg 73%
    10:00 +6°C° 0 mm 4 mps 765 mmHg 69%
    11:00 +8°C° 0 mm 3 mps 765 mmHg 68%
    12:00 +9°C° 0 mm 3 mps 764 mmHg 66%
    13:00 +10°C° 0 mm 3 mps 764 mmHg 64%
    14:00 +9°C° 0 mm 3 mps 764 mmHg 68%
    15:00 +8°C° 0 mm 3 mps 764 mmHg 72%
    16:00 +7°C° 0 mm 2 mps 764 mmHg 77%
    17:00 +5°C° 0 mm 3 mps 764 mmHg 79%
    18:00 +4°C° 0 mm 3 mps 764 mmHg 80%
    19:00 +3°C° 0 mm 3 mps 764 mmHg 82%
    20:00 +2°C° 0 mm 3 mps 765 mmHg 82%
    21:00 +2°C° 0 mm 3 mps 765 mmHg 81%
    22:00 +2°C° 0 mm 3 mps 765 mmHg 81%
    23:00 +1°C° 0 mm 3 mps 765 mmHg 81%

    Day after tomorrow, 21 January, Saturday

    Time Temperature Precipitation Wind Pressure Humidity
    00:00 +1°C° 0 mm 3 mps 765 mmHg 80%
    01:00 +1°C° 0 mm 3 mps 765 mmHg 80%
    02:00 +1°C° 0 mm 3 mps 765 mmHg 79%
    03:00 +1°C° 0 mm 3 mps 764 mmHg 79%
    04:00 +1°C° 0 mm 3 mps 764 mmHg 78%
    05:00 +1°C° 0 mm 3 mps 764 mmHg 78%
    06:00 +1°C° 0 mm 3 mps 764 mmHg 77%
    07:00 +1°C° 0 mm 3 mps 764 mmHg 76%
    08:00 +3°C° 0 mm 3 mps 764 mmHg 72%
    09:00 +4°C° 0 mm 3 mps 764 mmHg 68%
    10:00 +7°C° 0 mm 2 mps 764 mmHg 63%
    11:00 +8°C° 0 mm 2 mps 764 mmHg 61%
    12:00 +9°C° 0 mm 2 mps 764 mmHg 59%
    13:00 +11°C° 0 mm 1 mps 763 mmHg 57%
    14:00 +10°C° 0 mm 1 mps 763 mmHg 63%
    15:00 +8°C° 0 mm 2 mps 763 mmHg 70%
    16:00 +7°C° 0 mm 2 mps 763 mmHg 76%
    17:00 +6°C° 0 mm 2 mps 763 mmHg 78%
    18:00 +5°C° 0 mm 2 mps 763 mmHg 80%
    19:00 +3°C° 0 mm 3 mps 763 mmHg 82%
    20:00 +2°C° 0 mm 3 mps 763 mmHg 80%
    21:00 +2°C° 0 mm 3 mps 764 mmHg 79%
    22:00 +2°C° 0 mm 3 mps 764 mmHg 78%
    23:00 +2°C° 0 mm 3 mps 764 mmHg 77%

    22 January, Sunday

    Time Temperature Precipitation Wind Pressure Humidity
    00:00 +1°C° 0 mm 3 mps 764 mmHg 76%
    01:00 +1°C° 0 mm 3 mps 764 mmHg 76%
    02:00 +1°C° 0 mm 3 mps 764 mmHg 75%
    03:00 +1°C° 0 mm 3 mps 764 mmHg 74%
    04:00 +1°C° 0 mm 3 mps 764 mmHg 74%
    05:00 +1°C° 0 mm 3 mps 764 mmHg 73%
    06:00 +1°C° 0 mm 3 mps 764 mmHg 72%
    07:00 +1°C° 0 mm 3 mps 764 mmHg 71%
    08:00 +3°C° 0 mm 3 mps 764 mmHg 67%
    09:00 +5°C° 0 mm 3 mps 764 mmHg 63%
    10:00 +7°C° 0 mm 3 mps 764 mmHg 59%
    11:00 +8°C° 0 mm 3 mps 764 mmHg 58%
    12:00 +10°C° 0 mm 3 mps 764 mmHg 56%
    13:00 +11°C° 0 mm 3 mps 763 mmHg 55%
    14:00 +10°C° 0 mm 2 mps 763 mmHg 61%
    15:00 +9°C° 0 mm 2 mps 763 mmHg 67%
    16:00 +8°C° 0 mm 2 mps 763 mmHg 73%
    17:00 +5°C° 0 mm 3 mps 763 mmHg 74%
    18:00 +4°C° 0 mm 3 mps 763 mmHg 76%
    19:00 +3°C° 0 mm 3 mps 763 mmHg 78%
    20:00 +3°C° 0 mm 3 mps 763 mmHg 77%
    21:00 +3°C° 0 mm 3 mps 764 mmHg 76%
    22:00 +1°C° 0 mm 4 mps 764 mmHg 75%
    23:00 +1°C° 0 mm 4 mps 763 mmHg 74%

    23 January, Monday

    Time Temperature Precipitation Wind Pressure Humidity
    00:00 +1°C° 0 mm 4 mps 763 mmHg 73%
    01:00 +1°C° 0 mm 4 mps 763 mmHg 72%
    02:00 +1°C° 0 mm 4 mps 762 mmHg 71%
    03:00 +1°C° 0 mm 4 mps 762 mmHg 71%
    04:00 +2°C° 0 mm 3 mps 761 mmHg 70%
    05:00 +1°C° 0 mm 4 mps 761 mmHg 70%
    06:00 +1°C° 0 mm 4 mps 761 mmHg 70%
    07:00 +1°C° 0 mm 4 mps 761 mmHg 70%
    08:00 +3°C° 0 mm 4 mps 761 mmHg 69%
    09:00 +5°C° 0 mm 4 mps 761 mmHg 67%
    10:00 +6°C° 0 mm 4 mps 761 mmHg 65%
    11:00 +6°C° 0.2 mm 4 mps 760 mmHg 67%
    12:00 +7°C° 0.2 mm 4 mps 760 mmHg 69%
    13:00 +7°C° 0.2 mm 4 mps 759 mmHg 71%
    14:00 +6°C° 0.5 mm 4 mps 759 mmHg 74%
    15:00 +6°C° 0.5 mm 5 mps 758 mmHg 76%
    16:00 +6°C° 0.5 mm 5 mps 758 mmHg 79%
    17:00 +6°C° 0.4 mm 5 mps 757 mmHg 80%
    18:00 +5°C° 0.4 mm 5 mps 757 mmHg 81%
    19:00 +5°C° 0.4 mm 5 mps 757 mmHg 82%
    20:00 +5°C° 0.6 mm 5 mps 757 mmHg 83%
    21:00 +5°C° 0.6 mm 5 mps 757 mmHg 84%
    22:00 +5°C° 0.6 mm 5 mps 756 mmHg 85%
    23:00 +5°C° 0.5 mm 5 mps 756 mmHg 85%

    24 January, Tuesday

    Time Temperature Precipitation Wind Pressure Humidity
    00:00 +5°C° 0.5 mm 5 mps 756 mmHg 86%
    01:00 +5°C° 0.5 mm 4 mps 755 mmHg 87%
    02:00 +5°C° 0.9 mm 4 mps 755 mmHg 88%
    03:00 +5°C° 0.9 mm 4 mps 755 mmHg 90%
    04:00 +5°C° 0.9 mm 4 mps 754 mmHg 91%
    05:00 +5°C° 1 mm 4 mps 754 mmHg 91%
    06:00 +5°C° 1 mm 4 mps 754 mmHg 91%
    07:00 +5°C° 1 mm 4 mps 754 mmHg 91%
    08:00 +7°C° 0.3 mm 3 mps 753 mmHg 90%
    09:00 +7°C° 0.3 mm 3 mps 753 mmHg 88%
    10:00 +8°C° 0.3 mm 2 mps 753 mmHg 87%
    11:00 +8°C° 0.3 mm 2 mps 753 mmHg 86%
    12:00 +8°C° 0.3 mm 2 mps 753 mmHg 86%
    13:00 +8°C° 0.3 mm 2 mps 752 mmHg 85%
    14:00 +8°C° 0.2 mm 2 mps 752 mmHg 86%
    15:00 +8°C° 0.2 mm 2 mps 752 mmHg 87%
    16:00 +8°C° 0.2 mm 2 mps 752 mmHg 88%
    17:00 +7°C° 0.1 mm 2 mps 752 mmHg 88%
    18:00 +7°C° 0.1 mm 2 mps 752 mmHg 88%
    19:00 +6°C° 0.1 mm 2 mps 752 mmHg 89%
    20:00 +6°C° 0 mm 2 mps 753 mmHg 88%
    21:00 +6°C° 0 mm 2 mps 753 mmHg 88%
    22:00 +6°C° 0 mm 2 mps 753 mmHg 87%
    23:00 +5°C° 0 mm 2 mps 753 mmHg 87%
    Show more